カタログに戻る

COSMOS 397 DEB *

運用中LEO
NORAD 13776·DEBRIS·🇷🇺 Russia

打ち上げ Feb 25, 1971 から Baikonur Cosmodrome

Loading…

次のパス (今後24時間)

TLE

最新Source: Space-Track

元期: Sep 14, 2026, 17:52 UTC

1 13776U 71015CN  26257.74444878  .00000975  00000-0  55689-3 0  9993
2 13776  65.8546 253.2794 0477954  25.8371 145.8304 13.68230719134232

AllMySatでCOSMOS 397 DEB *をリアルタイム追跡

Download on the App Store